Time,TemperatureF,DewpointF,PressureIn,WindDirection,WindDirectionDegrees,WindSpeedMPH,WindSpeedGustMPH,Humidity,HourlyPrecipIn,Conditions,Clouds,dailyrainin,SoftwareType,DateUTC
2013-11-17 00:11:00,7.0,-1.0,-100.00,North,3,9.0,19.0,70,-99.99,,,-99.99,,2013-11-17 09:11:00,
2013-11-17 00:21:00,7.0,-1.0,-100.00,North,3,9.0,19.0,70,-99.99,,,-99.99,,2013-11-17 09:21:00,
2013-11-17 00:43:00,8.0,-1.0,-100.00,NNE,27,10.0,21.0,67,-99.99,,,-99.99,,2013-11-17 09:43:00,
2013-11-17 00:51:00,5.0,0.0,-100.00,NE,42,10.0,14.0,78,-99.99,,,-99.99,,2013-11-17 09:51:00,
2013-11-17 00:53:00,8.0,-1.0,-100.00,NNE,27,10.0,21.0,67,-99.99,,,-99.99,,2013-11-17 09:53:00,
2013-11-17 01:13:00,7.0,-1.0,-100.00,NE,34,5.0,14.0,68,-99.99,,,-99.99,,2013-11-17 10:13:00,
2013-11-17 01:23:00,5.0,0.0,-100.00,NE,42,10.0,14.0,78,-99.99,,,-99.99,,2013-11-17 10:23:00,
2013-11-17 01:33:00,5.0,0.0,-100.00,NE,42,10.0,14.0,78,-99.99,,,-99.99,,2013-11-17 10:33:00,
2013-11-17 01:42:00,5.0,0.0,-100.00,NE,42,10.0,14.0,78,-99.99,,,-99.99,,2013-11-17 10:42:00,
2013-11-17 02:12:00,6.0,0.0,-100.00,NE,36,8.0,16.0,75,-99.99,,,-99.99,,2013-11-17 11:12:00,
2013-11-17 02:22:00,5.0,-1.0,-100.00,NE,38,8.0,14.0,77,-99.99,,,-99.99,,2013-11-17 11:22:00,
2013-11-17 02:32:00,5.0,-1.0,-100.00,NE,38,8.0,14.0,77,-99.99,,,-99.99,,2013-11-17 11:32:00,
2013-11-17 02:43:00,5.0,-1.0,-100.00,NE,38,8.0,14.0,77,-99.99,,,-99.99,,2013-11-17 11:43:00,
2013-11-17 02:52:00,6.0,0.0,-100.00,NE,35,10.0,21.0,74,-99.99,,,-99.99,,2013-11-17 11:52:00,
2013-11-17 03:11:00,6.0,-1.0,-100.00,NE,34,9.0,19.0,73,-99.99,,,-99.99,,2013-11-17 12:11:00,
2013-11-17 03:21:00,6.0,-1.0,-100.00,NNE,29,16.0,26.0,71,-99.99,,,-99.99,,2013-11-17 12:21:00,
2013-11-17 03:42:00,7.0,-2.0,-100.00,NNE,29,12.0,33.0,66,-99.99,,,-99.99,,2013-11-17 12:42:00,
2013-11-17 03:52:00,7.0,-2.0,-100.00,NNE,29,12.0,33.0,66,-99.99,,,-99.99,,2013-11-17 12:52:00,
2013-11-17 05:11:00,6.0,-4.0,-100.00,NE,36,5.0,11.0,63,-99.99,,,-99.99,,2013-11-17 14:11:00,
2013-11-17 05:21:00,6.0,-5.0,-100.00,NNE,30,6.0,12.0,61,-99.99,,,-99.99,,2013-11-17 14:21:00,
2013-11-17 05:42:00,6.0,-5.0,-100.00,NNE,28,9.0,17.0,61,-99.99,,,-99.99,,2013-11-17 14:42:00,
2013-11-17 05:52:00,6.0,-4.0,-100.00,NNE,31,8.0,13.0,62,-99.99,,,-99.99,,2013-11-17 14:52:00,
2013-11-17 06:02:00,6.0,-4.0,-100.00,NNE,31,8.0,13.0,62,-99.99,,,-99.99,,2013-11-17 15:02:00,
2013-11-17 06:11:00,6.0,-4.0,-100.00,NNE,31,8.0,13.0,62,-99.99,,,-99.99,,2013-11-17 15:11:00,
2013-11-17 06:21:00,5.0,-4.0,-100.00,NNE,31,8.0,14.0,67,-99.99,,,-99.99,,2013-11-17 15:21:00,
2013-11-17 06:54:00,5.0,-4.0,-100.00,NNE,31,8.0,14.0,67,-99.99,,,-99.99,,2013-11-17 15:54:00,
2013-11-17 07:03:00,5.0,-4.0,-100.00,NNE,31,8.0,14.0,67,-99.99,,,-99.99,,2013-11-17 16:03:00,
2013-11-17 07:12:00,5.0,-4.0,-100.00,NNE,31,8.0,14.0,67,-99.99,,,-99.99,,2013-11-17 16:12:00,
2013-11-17 07:42:00,4.0,-3.0,-100.00,NE,36,8.0,14.0,73,-99.99,,,-99.99,,2013-11-17 16:42:00,
2013-11-17 07:53:00,4.0,-3.0,-100.00,NE,36,8.0,14.0,73,-99.99,,,-99.99,,2013-11-17 16:53:00,
2013-11-17 08:03:00,4.0,-3.0,-100.00,NE,36,8.0,14.0,73,-99.99,,,-99.99,,2013-11-17 17:03:00,
2013-11-17 08:22:00,3.0,-2.0,-100.00,NNE,23,10.0,18.0,80,-99.99,,,-99.99,,2013-11-17 17:22:00,
2013-11-17 08:33:00,3.0,-2.0,-100.00,NNE,23,10.0,18.0,80,-99.99,,,-99.99,,2013-11-17 17:33:00,
2013-11-17 08:43:00,3.0,-2.0,-100.00,NNE,23,10.0,18.0,80,-99.99,,,-99.99,,2013-11-17 17:43:00,
2013-11-17 08:52:00,3.0,-3.0,-100.00,NNE,25,13.0,23.0,74,-99.99,,,-99.99,,2013-11-17 17:52:00,
2013-11-17 09:12:00,4.0,-3.0,-100.00,NNE,27,13.0,24.0,71,-99.99,,,-99.99,,2013-11-17 18:12:00,
2013-11-17 09:23:00,4.0,-4.0,-100.00,NNE,26,14.0,25.0,70,-99.99,,,-99.99,,2013-11-17 18:23:00,
2013-11-17 09:42:00,4.0,-4.0,-100.00,NNE,21,11.0,23.0,69,-99.99,,,-99.99,,2013-11-17 18:42:00,
2013-11-17 09:52:00,4.0,-4.0,-100.00,NNE,21,11.0,23.0,69,-99.99,,,-99.99,,2013-11-17 18:52:00,
2013-11-17 10:12:00,3.0,-3.0,-100.00,NNE,31,12.0,23.0,75,-99.99,,,-99.99,,2013-11-17 19:12:00,
2013-11-17 10:21:00,3.0,-2.0,-100.00,NE,36,11.0,21.0,79,-99.99,,,-99.99,,2013-11-17 19:21:00,
2013-11-17 10:42:00,3.0,-2.0,-100.00,NNE,32,13.0,26.0,78,-99.99,,,-99.99,,2013-11-17 19:42:00,
2013-11-17 10:52:00,3.0,-2.0,-100.00,NNE,32,13.0,26.0,78,-99.99,,,-99.99,,2013-11-17 19:52:00,
2013-11-17 11:02:00,3.0,-2.0,-100.00,NNE,32,13.0,26.0,78,-99.99,,,-99.99,,2013-11-17 20:02:00,
2013-11-17 11:43:00,8.0,-3.0,-100.00,NNE,20,12.0,24.0,60,-99.99,,,-99.99,,2013-11-17 20:43:00,
2013-11-17 11:52:00,8.0,-4.0,-100.00,NNE,24,14.0,27.0,58,-99.99,,,-99.99,,2013-11-17 20:52:00,
2013-11-17 12:12:00,9.0,-3.0,-100.00,NNE,21,11.0,21.0,58,-99.99,,,-99.99,,2013-11-17 21:12:00,
2013-11-17 12:22:00,9.0,-3.0,-100.00,NNE,18,10.0,20.0,57,-99.99,,,-99.99,,2013-11-17 21:22:00,
2013-11-17 12:44:00,10.0,-2.0,-100.00,NNE,21,8.0,19.0,58,-99.99,,,-99.99,,2013-11-17 21:44:00,
2013-11-17 12:51:00,10.0,-1.0,-100.00,NNE,22,11.0,23.0,61,-99.99,,,-99.99,,2013-11-17 21:51:00,
2013-11-17 12:55:00,10.0,-2.0,-100.00,NNE,29,8.0,17.0,58,-99.99,,,-99.99,,2013-11-17 21:55:00,
2013-11-17 13:13:00,10.0,-1.0,-100.00,NNE,18,12.0,23.0,59,-99.99,,,-99.99,,2013-11-17 22:13:00,
2013-11-17 13:24:00,10.0,-1.0,-100.00,NNE,22,11.0,23.0,61,-99.99,,,-99.99,,2013-11-17 22:24:00,
2013-11-17 13:34:00,10.0,-1.0,-100.00,NNE,22,11.0,23.0,61,-99.99,,,-99.99,,2013-11-17 22:34:00,
2013-11-17 13:43:00,10.0,-1.0,-100.00,NNE,22,11.0,23.0,61,-99.99,,,-99.99,,2013-11-17 22:43:00,
2013-11-17 14:12:00,10.0,0.0,-100.00,NNE,19,13.0,28.0,62,-99.99,,,-99.99,,2013-11-17 23:12:00,
2013-11-17 14:23:00,10.0,0.0,-100.00,NNE,19,13.0,28.0,62,-99.99,,,-99.99,,2013-11-17 23:23:00,
2013-11-17 14:33:00,10.0,0.0,-100.00,NNE,19,13.0,28.0,62,-99.99,,,-99.99,,2013-11-17 23:33:00,
2013-11-17 14:52:00,10.0,1.0,-100.00,NNE,22,10.0,20.0,66,-99.99,,,-99.99,,2013-11-17 23:52:00,
2013-11-17 15:11:00,9.0,1.0,-100.00,NNE,29,11.0,19.0,68,-99.99,,,-99.99,,2013-11-18 00:11:00,
2013-11-17 15:21:00,9.0,1.0,-100.00,NNE,29,11.0,19.0,68,-99.99,,,-99.99,,2013-11-18 00:21:00,
2013-11-17 15:22:00,8.0,-2.0,-100.00,NNE,23,12.0,23.0,63,-99.99,,,-99.99,,2013-11-18 00:22:00,
2013-11-17 15:42:00,9.0,0.0,-100.00,NNE,29,10.0,21.0,67,-99.99,,,-99.99,,2013-11-18 00:42:00,
2013-11-17 15:52:00,8.0,-2.0,-100.00,NNE,23,12.0,23.0,63,-99.99,,,-99.99,,2013-11-18 00:52:00,
2013-11-17 16:01:00,8.0,-2.0,-100.00,NNE,23,12.0,23.0,63,-99.99,,,-99.99,,2013-11-18 01:01:00,
2013-11-17 16:11:00,8.0,-2.0,-100.00,NNE,23,12.0,23.0,63,-99.99,,,-99.99,,2013-11-18 01:11:00,
2013-11-17 16:52:00,6.0,-1.0,-100.00,NNE,27,16.0,28.0,71,-99.99,,,-99.99,,2013-11-18 01:52:00,
2013-11-17 17:01:00,6.0,-1.0,-100.00,NNE,27,16.0,28.0,71,-99.99,,,-99.99,,2013-11-18 02:01:00,
2013-11-17 17:11:00,6.0,-1.0,-100.00,NNE,27,16.0,28.0,71,-99.99,,,-99.99,,2013-11-18 02:11:00,
2013-11-17 17:21:00,5.0,-3.0,-100.00,NNE,31,12.0,28.0,70,-99.99,,,-99.99,,2013-11-18 02:21:00,
2013-11-17 17:22:00,5.0,-4.0,-100.00,NNE,32,10.0,23.0,65,-99.99,,,-99.99,,2013-11-18 02:22:00,
2013-11-17 17:32:00,5.0,-3.0,-100.00,NNE,31,12.0,28.0,70,-99.99,,,-99.99,,2013-11-18 02:32:00,
2013-11-17 17:42:00,5.0,-3.0,-100.00,NNE,31,12.0,28.0,70,-99.99,,,-99.99,,2013-11-18 02:42:00,
2013-11-17 17:52:00,5.0,-4.0,-100.00,NNE,32,10.0,23.0,65,-99.99,,,-99.99,,2013-11-18 02:52:00,
2013-11-17 18:02:00,5.0,-4.0,-100.00,NNE,32,10.0,23.0,65,-99.99,,,-99.99,,2013-11-18 03:02:00,
2013-11-17 18:11:00,5.0,-4.0,-100.00,NNE,32,10.0,23.0,65,-99.99,,,-99.99,,2013-11-18 03:11:00,
2013-11-17 18:52:00,3.0,-3.0,-100.00,NNE,20,13.0,27.0,75,-99.99,,,-99.99,,2013-11-18 03:52:00,
2013-11-17 18:54:00,3.0,-3.0,-100.00,NNE,27,14.0,23.0,74,-99.99,,,-99.99,,2013-11-18 03:54:00,
2013-11-17 19:12:00,3.0,-3.0,-100.00,NNE,24,13.0,24.0,76,-99.99,,,-99.99,,2013-11-18 04:12:00,
2013-11-17 19:23:00,3.0,-3.0,-100.00,NNE,20,13.0,27.0,75,-99.99,,,-99.99,,2013-11-18 04:23:00,
2013-11-17 19:33:00,3.0,-3.0,-100.00,NNE,20,13.0,27.0,75,-99.99,,,-99.99,,2013-11-18 04:33:00,
2013-11-17 19:42:00,3.0,-3.0,-100.00,NNE,20,13.0,27.0,75,-99.99,,,-99.99,,2013-11-18 04:42:00,
2013-11-17 20:22:00,3.0,-2.0,-100.00,NNE,18,14.0,28.0,79,-99.99,,,-99.99,,2013-11-18 05:22:00,
2013-11-17 20:42:00,3.0,-2.0,-100.00,NNE,19,12.0,23.0,80,-99.99,,,-99.99,,2013-11-18 05:42:00,
2013-11-17 20:53:00,3.0,-2.0,-100.00,NNE,19,12.0,23.0,80,-99.99,,,-99.99,,2013-11-18 05:53:00,
2013-11-17 21:12:00,3.0,-2.0,-100.00,NNE,19,10.0,21.0,80,-99.99,,,-99.99,,2013-11-18 06:12:00,
2013-11-17 21:22:00,3.0,-2.0,-100.00,NNE,19,10.0,21.0,80,-99.99,,,-99.99,,2013-11-18 06:22:00,
2013-11-17 21:42:00,2.0,-3.0,-100.00,NE,40,10.0,20.0,79,-99.99,,,-99.99,,2013-11-18 06:42:00,
2013-11-17 21:52:00,2.0,-3.0,-100.00,NE,40,10.0,20.0,79,-99.99,,,-99.99,,2013-11-18 06:52:00,
2013-11-17 22:01:00,2.0,-3.0,-100.00,NE,40,10.0,20.0,79,-99.99,,,-99.99,,2013-11-18 07:01:00,
2013-11-17 22:21:00,1.0,-3.0,-100.00,NE,40,9.0,17.0,82,-99.99,,,-99.99,,2013-11-18 07:21:00,
2013-11-17 22:32:00,1.0,-3.0,-100.00,NE,40,9.0,17.0,82,-99.99,,,-99.99,,2013-11-18 07:32:00,
2013-11-17 22:42:00,1.0,-3.0,-100.00,NE,40,9.0,17.0,82,-99.99,,,-99.99,,2013-11-18 07:42:00,
2013-11-17 22:51:00,1.0,-3.0,-100.00,NE,50,11.0,18.0,81,-99.99,,,-99.99,,2013-11-18 07:51:00,
2013-11-17 22:52:00,1.0,-2.0,-100.00,NE,40,8.0,13.0,85,-99.99,,,-99.99,,2013-11-18 07:52:00,
2013-11-17 23:01:00,1.0,-2.0,-100.00,NE,40,8.0,13.0,85,-99.99,,,-99.99,,2013-11-18 08:01:00,
2013-11-17 23:11:00,1.0,-2.0,-100.00,NE,40,8.0,13.0,85,-99.99,,,-99.99,,2013-11-18 08:11:00,
2013-11-17 23:21:00,1.0,-3.0,-100.00,NE,50,11.0,18.0,81,-99.99,,,-99.99,,2013-11-18 08:21:00,
2013-11-17 23:32:00,1.0,-3.0,-100.00,NE,50,11.0,18.0,81,-99.99,,,-99.99,,2013-11-18 08:32:00,
2013-11-17 23:42:00,1.0,-3.0,-100.00,NE,50,11.0,18.0,81,-99.99,,,-99.99,,2013-11-18 08:42:00,